Kezdőlap
METAR-TAF:

METAR-TAF

Repülőterek :

Agri-Science Center

Chillicothe, Missouri, Amerikai Egyesült Államok

földrajzi szélesség: 39-49N, földrajzi hosszúság: 093-35W, magasság: 234 m

Jelenlegi meteorológiai megfigyelések

A jelentés 11 perccel ezelõtt készült, 16:51 UTC
Északi szél 8 kt széllökések: 24 kt
Hőmérséklet 11°C
Páratartalom 82%
Légköri nyomás 1016 hPa

METAR: KCDJ 181651Z AUTO 01008G24KT 11/08 A2999 RMK AO1 PK WND 03026/1626 SLP155 P0001 T01060083

Idő: 12:02 (17:02 UTC)


TAF: hiányzik

Meteorológiai megfigyelések és előrejelzések több, mint 4000 repülőtéren (METAR és TAF jelentéseket).

A térképen piros és sárga pontok jelzik az elérhető meteorológiai állomásokat.

Mozgassa az egeret a pont fölött, hogy megjelenjen az állomás neve.

Azután kattintson az időjárási megfigyelések és előrejelzések megtekintéséhez.

A térkép megváltoztatása: kattintson a fekete keresztel jelölt zöld gombra ráközelítéshez, a vonallal jelölt zöld gombra távolításhoz, vagy a zöld nyilakra a szomszédos térképek eléréséhez.


METAR-TAF: